When you browse on this site, cookies collect data to enhance your experience and personalize the content and advertising you see.
Visit our Privacy Policy to learn more. By continuing to use the site, you agree to this use of cookies and data.

Previsão horária em Taneevka

Hoje, 4 Julho, Sábado

Tempo Temperatura Precipitação Vento Pressão Humidade
00:00 +20°C° 0 mm 1 m/s 748 mmHg 90%
01:00 +20°C° 0 mm 1 m/s 748 mmHg 90%
02:00 +20°C° 0 mm 1 m/s 748 mmHg 91%
03:00 +19°C° 0 mm 2 m/s 748 mmHg 89%
04:00 +20°C° 0 mm 2 m/s 748 mmHg 88%
05:00 +20°C° 0 mm 2 m/s 748 mmHg 88%
06:00 +21°C° 0 mm 2 m/s 748 mmHg 87%
07:00 +24°C° 0 mm 2 m/s 748 mmHg 83%
08:00 +25°C° 0 mm 3 m/s 748 mmHg 78%
09:00 +26°C° 0 mm 3 m/s 748 mmHg 72%
10:00 +27°C° 0 mm 3 m/s 748 mmHg 69%
11:00 +29°C° 0 mm 4 m/s 748 mmHg 65%
12:00 +30°C° 0 mm 4 m/s 747 mmHg 62%
13:00 +30°C° 0.2 mm 4 m/s 747 mmHg 62%
14:00 +30°C° 0.2 mm 4 m/s 747 mmHg 63%
15:00 +30°C° 0.2 mm 4 m/s 747 mmHg 63%
16:00 +30°C° 0.4 mm 3 m/s 746 mmHg 68%
17:00 +29°C° 0.4 mm 3 m/s 746 mmHg 73%
18:00 +28°C° 0.4 mm 2 m/s 746 mmHg 78%
19:00 +27°C° 0.1 mm 2 m/s 746 mmHg 80%
20:00 +25°C° 0.1 mm 2 m/s 746 mmHg 83%
21:00 +24°C° 0.1 mm 3 m/s 746 mmHg 85%
22:00 +23°C° 1.3 mm 2 m/s 746 mmHg 85%
23:00 +23°C° 1.3 mm 2 m/s 746 mmHg 84%

Amanhã, 5 Julho, Domingo

Tempo Temperatura Precipitação Vento Pressão Humidade
00:00 +21°C° 1.3 mm 2 m/s 746 mmHg 84%
01:00 +20°C° 0.8 mm 2 m/s 746 mmHg 86%
02:00 +20°C° 0.8 mm 2 m/s 746 mmHg 89%
03:00 +19°C° 0.8 mm 2 m/s 746 mmHg 91%
04:00 +20°C° 0.5 mm 2 m/s 746 mmHg 91%
05:00 +20°C° 0.5 mm 2 m/s 745 mmHg 90%
06:00 +22°C° 0.5 mm 1 m/s 745 mmHg 90%
07:00 +24°C° 0 mm 2 m/s 745 mmHg 86%
08:00 +25°C° 0 mm 2 m/s 745 mmHg 82%
09:00 +26°C° 0 mm 2 m/s 745 mmHg 78%
10:00 +27°C° 0.2 mm 3 m/s 745 mmHg 75%
11:00 +28°C° 0.2 mm 3 m/s 745 mmHg 71%
12:00 +29°C° 0.2 mm 3 m/s 745 mmHg 68%
13:00 +29°C° 0.5 mm 4 m/s 745 mmHg 68%
14:00 +29°C° 0.5 mm 5 m/s 745 mmHg 69%
15:00 +29°C° 0.5 mm 5 m/s 745 mmHg 69%
16:00 +28°C° 0.5 mm 4 m/s 745 mmHg 74%
17:00 +27°C° 0.5 mm 2 m/s 745 mmHg 79%
18:00 +26°C° 0.5 mm 1 m/s 745 mmHg 83%
19:00 +25°C° 0 mm 1 m/s 745 mmHg 84%
20:00 +24°C° 0 mm 1 m/s 744 mmHg 84%
21:00 +23°C° 0 mm 1 m/s 744 mmHg 85%
22:00 +23°C° 0 mm 1 m/s 744 mmHg 86%
23:00 +22°C° 0 mm 1 m/s 744 mmHg 87%

Depois de amanhã, 6 Julho, Segunda-feira

Tempo Temperatura Precipitação Vento Pressão Humidade
00:00 +22°C° 0 mm 1 m/s 744 mmHg 88%
01:00 +21°C° 0.1 mm 1 m/s 744 mmHg 89%
02:00 +21°C° 0.1 mm 1 m/s 744 mmHg 90%
03:00 +21°C° 0.1 mm 1 m/s 744 mmHg 90%
04:00 +22°C° 0 mm 1 m/s 744 mmHg 90%
05:00 +22°C° 0 mm 1 m/s 744 mmHg 89%
06:00 +23°C° 0 mm 1 m/s 744 mmHg 88%
07:00 +24°C° 0 mm 1 m/s 745 mmHg 83%
08:00 +26°C° 0 mm 2 m/s 745 mmHg 79%
09:00 +27°C° 0 mm 2 m/s 745 mmHg 74%
10:00 +28°C° 0 mm 2 m/s 745 mmHg 70%
11:00 +29°C° 0 mm 3 m/s 745 mmHg 66%
12:00 +30°C° 0 mm 3 m/s 745 mmHg 63%
13:00 +30°C° 0.1 mm 3 m/s 745 mmHg 62%
14:00 +30°C° 0.1 mm 3 m/s 745 mmHg 61%
15:00 +31°C° 0.1 mm 3 m/s 745 mmHg 60%
16:00 +30°C° 0 mm 3 m/s 745 mmHg 63%
17:00 +30°C° 0 mm 2 m/s 745 mmHg 65%
18:00 +30°C° 0 mm 1 m/s 745 mmHg 68%
19:00 +28°C° 0 mm 1 m/s 745 mmHg 70%
20:00 +26°C° 0 mm 1 m/s 745 mmHg 73%
21:00 +22°C° 0 mm 0 m/s 745 mmHg 75%
22:00 +24°C° 0 mm 1 m/s 745 mmHg 77%
23:00 +23°C° 0 mm 1 m/s 745 mmHg 79%

7 Julho, Terça-feira

Tempo Temperatura Precipitação Vento Pressão Humidade
00:00 +23°C° 0 mm 1 m/s 745 mmHg 81%
01:00 +22°C° 0 mm 1 m/s 745 mmHg 82%
02:00 +21°C° 0 mm 2 m/s 745 mmHg 84%
03:00 +21°C° 0 mm 2 m/s 745 mmHg 86%
04:00 +21°C° 0 mm 2 m/s 746 mmHg 84%
05:00 +23°C° 0 mm 2 m/s 746 mmHg 83%
06:00 +24°C° 0 mm 2 m/s 746 mmHg 82%
07:00 +25°C° 0 mm 2 m/s 746 mmHg 78%
08:00 +27°C° 0 mm 3 m/s 746 mmHg 73%
09:00 +28°C° 0 mm 3 m/s 746 mmHg 69%
10:00 +29°C° 0 mm 3 m/s 746 mmHg 65%
11:00 +31°C° 0 mm 3 m/s 746 mmHg 60%
12:00 +33°C° 0 mm 3 m/s 746 mmHg 56%
13:00 +33°C° 0 mm 3 m/s 746 mmHg 54%
14:00 +34°C° 0 mm 3 m/s 746 mmHg 52%
15:00 +34°C° 0 mm 3 m/s 745 mmHg 50%
16:00 +34°C° 0 mm 3 m/s 745 mmHg 55%
17:00 +33°C° 0 mm 3 m/s 745 mmHg 60%
18:00 +31°C° 0 mm 3 m/s 745 mmHg 65%
19:00 +29°C° 0 mm 2 m/s 745 mmHg 68%
20:00 +27°C° 0 mm 2 m/s 745 mmHg 70%
21:00 +25°C° 0 mm 2 m/s 745 mmHg 73%
22:00 +25°C° 0 mm 2 m/s 745 mmHg 73%
23:00 +24°C° 0 mm 2 m/s 746 mmHg 74%

8 Julho, Quarta-feira

Tempo Temperatura Precipitação Vento Pressão Humidade
00:00 +23°C° 0 mm 2 m/s 746 mmHg 74%
01:00 +23°C° 0 mm 2 m/s 746 mmHg 77%
02:00 +21°C° 0 mm 2 m/s 745 mmHg 80%
03:00 +21°C° 0 mm 2 m/s 745 mmHg 82%
04:00 +21°C° 0 mm 2 m/s 746 mmHg 83%
05:00 +23°C° 0 mm 2 m/s 746 mmHg 83%
06:00 +24°C° 0 mm 2 m/s 746 mmHg 83%
07:00 +25°C° 0 mm 3 m/s 745 mmHg 79%
08:00 +27°C° 0 mm 4 m/s 745 mmHg 75%
09:00 +28°C° 0 mm 4 m/s 745 mmHg 71%
10:00 +29°C° 0 mm 5 m/s 745 mmHg 68%
11:00 +30°C° 0 mm 5 m/s 745 mmHg 65%
12:00 +30°C° 0 mm 5 m/s 745 mmHg 62%
13:00 +30°C° 0.1 mm 5 m/s 744 mmHg 62%
14:00 +32°C° 0.1 mm 5 m/s 744 mmHg 62%
15:00 +32°C° 0.1 mm 5 m/s 744 mmHg 62%
16:00 +30°C° 0.1 mm 5 m/s 744 mmHg 66%
17:00 +30°C° 0.1 mm 4 m/s 743 mmHg 70%
18:00 +29°C° 0.1 mm 4 m/s 743 mmHg 73%
19:00 +28°C° 0 mm 4 m/s 743 mmHg 76%
20:00 +26°C° 0 mm 4 m/s 743 mmHg 78%
21:00 +25°C° 0 mm 4 m/s 743 mmHg 80%
22:00 +25°C° 0 mm 4 m/s 743 mmHg 79%
23:00 +25°C° 0 mm 4 m/s 742 mmHg 78%

9 Julho, Quinta-feira

Tempo Temperatura Precipitação Vento Pressão Humidade
00:00 +23°C° 0 mm 5 m/s 742 mmHg 77%
01:00 +23°C° 0 mm 5 m/s 742 mmHg 76%
02:00 +23°C° 0 mm 5 m/s 741 mmHg 74%
03:00 +22°C° 0 mm 5 m/s 741 mmHg 73%
04:00 +22°C° 0 mm 5 m/s 741 mmHg 75%
05:00 +22°C° 0 mm 5 m/s 741 mmHg 77%
06:00 +23°C° 0 mm 5 m/s 741 mmHg 78%
07:00 +25°C° 0 mm 5 m/s 741 mmHg 75%
08:00 +27°C° 0 mm 5 m/s 740 mmHg 71%
09:00 +28°C° 0 mm 5 m/s 740 mmHg 68%
10:00 +29°C° 0 mm 6 m/s 740 mmHg 64%
11:00 +30°C° 0 mm 6 m/s 740 mmHg 60%
12:00 +33°C° 0 mm 6 m/s 740 mmHg 57%
13:00 +32°C° 0 mm 5 m/s 740 mmHg 58%
14:00 +32°C° 0 mm 5 m/s 740 mmHg 60%
15:00 +32°C° 0 mm 4 m/s 740 mmHg 61%
16:00 +30°C° 0 mm 4 m/s 740 mmHg 63%
17:00 +30°C° 0 mm 3 m/s 740 mmHg 65%
18:00 +29°C° 0 mm 2 m/s 740 mmHg 67%
19:00 +28°C° 0.1 mm 2 m/s 740 mmHg 68%
20:00 +26°C° 0.1 mm 3 m/s 741 mmHg 70%
21:00 +25°C° 0.1 mm 3 m/s 741 mmHg 71%
22:00 +24°C° 0.1 mm 2 m/s 741 mmHg 75%
23:00 +23°C° 0.1 mm 2 m/s 741 mmHg 79%
Mostrar mais